Location: Holyhead Bay
(53.3667°N, 4.6667°W)
Time: 18:31:35
(UTC+00:00)

Cosmos 2084 Rocket - Pass Details

Date: 24 November 2020
Orbit: 536 x 644 km, 62.8° (Epoch: 16 January)

Event Time Altitude Azimuth Distance (km) Brightness Sun altitude
Rises 17:24:37 0° 243° (WSW) 2,711 9.0 -10.7°
Reaches altitude 10° 17:26:50 10° 249° (WSW) 1,832 7.6 -11.0°
Maximum altitude 17:30:53 53° 327° (NNW) 697 3.9 -11.5°
Enters shadow 17:34:21 14° 42° (NE) 1,626 5.2 -12.0°
